Location: Les Chemineaux
(47.3024°N, 1.5104°E)
Time: 19:59:08
(UTC+00:00)

Meteor 1-11 Rocket - Pass Details

Date: 19 May 2025
Orbit: 830 x 915 km, 81.2° (Epoch: 21 June)

Event Time Altitude Azimuth Distance (km) Brightness Sun altitude
Rises 22:43:27 0° 345° (NNW) 3,386 8.4 -21.0°
Reaches altitude 10° 22:45:53 10° 342° (NNW) 2,447 7.3 -21.2°
Maximum altitude 22:51:19 60° 264° (W) 949 3.9 -21.4°
Enters shadow 22:53:15 38° 203° (SSW) 1,247 4.2 -21.5°
